EW4939 Weather Reports


Display with metric or nautical units.
time (UTC)temp
F
wind
direction
speed
MPH
gust
MPH
rain 1hr
in
rain 24hr
in
rain mn
in
humidity
%
barometer
mb
20260903205519 96 217 2.0 3.0 0.00 0.00 0.00 49 1014.4
20260903205014 96 284 1.0 3.0 0.00 0.00 0.00 50 1014.5
20260903204510 96 330 2.0 4.0 0.00 0.00 0.00 50 1014.5
20260903204005 96 311 0.0 4.0 0.00 0.00 0.00 52 1014.7
20260903203501 95 286 2.0 4.0 0.00 0.00 0.00 50 1014.8
20260903203000 95 152 0.0 3.0 0.00 0.00 0.00 51 1015.0
20260903202456 96 205 1.0 7.0 0.00 0.00 0.00 51 1014.9
20260903201951 96 196 1.0 3.0 0.00 0.00 0.00 51 1014.9
20260903201446 95 178 0.0 3.0 0.00 0.00 0.00 51 1015.1
20260903200945 95 305 1.0 2.0 0.00 0.00 0.00 52 1015.0
20260903200440 94 213 4.0 4.0 0.00 0.00 0.00 51 1015.2
20260903195935 94 272 0.0 2.0 0.00 0.00 0.00 52 1015.3
20260903195432 94 258 1.0 2.0 0.00 0.00 0.00 51 1015.6
20260903194932 95 250 2.0 2.0 0.00 0.00 0.00 51 1015.3
20260903194427 96 305 2.0 3.0 0.00 0.00 0.00 50 1015.5
20260903193922 95 282 1.0 2.0 0.00 0.00 0.00 51 1015.6
20260903193419 96 353 1.0 2.0 0.00 0.00 0.00 51 1015.6
20260903192914 96 276 0.0 2.0 0.00 0.00 0.00 50 1015.6
20260903192410 95 324 1.0 2.0 0.00 0.00 0.00 52 1016.0
20260903191906 95 53 0.0 3.0 0.00 0.00 0.00 51 1015.6
20260903191402 96 312 1.0 3.0 0.00 0.00 0.00 51 1015.7
20260903190901 96 230 2.0 3.0 0.00 0.00 0.00 52 1016.0
20260903190355 95 209 1.0 2.0 0.00 0.00 0.00 51 1015.7
20260903185855 95 356 3.0 4.0 0.00 0.00 0.00 51 1016.0
20260903185350 94 347 0.0 3.0 0.00 0.00 0.00 52 1015.8
20260903184846 93 317 2.0 3.0 0.00 0.00 0.00 54 1016.0
20260903184343 94 279 0.0 2.0 0.00 0.00 0.00 53 1016.1
20260903183842 95 213 2.0 4.0 0.00 0.00 0.00 52 1016.1
20260903183337 95 326 2.0 3.0 0.00 0.00 0.00 51 1016.1
20260903182837 95 313 2.0 3.0 0.00 0.00 0.00 51 1016.0
20260903182336 95 318 2.0 3.0 0.00 0.00 0.00 52 1016.2
20260903181831 95 191 1.0 3.0 0.00 0.00 0.00 51 1016.2
20260903181326 94 218 2.0 4.0 0.00 0.00 0.00 51 1016.1
20260903180825 95 185 3.0 4.0 0.00 0.00 0.00 52 1016.2
20260903180320 94 315 1.0 2.0 0.00 0.00 0.00 53 1016.1
20260903175819 94 185 0.0 3.0 0.00 0.00 0.00 54 1016.0
20260903175318 94 307 1.0 4.0 0.00 0.00 0.00 53 1016.1
20260903174814 95 201 1.0 3.0 0.00 0.00 0.00 53 1016.2
20260903174309 94 292 1.0 3.0 0.00 0.00 0.00 55 1016.4
20260903173808 94 177 1.0 2.0 0.00 0.00 0.00 55 1016.4
20260903173304 94 344 4.0 6.0 0.00 0.00 0.00 55 1016.5
20260903172800 94 344 3.0 3.0 0.00 0.00 0.00 54 1016.6
20260903172254 93 337 2.0 3.0 0.00 0.00 0.00 55 1016.4
20260903171749 93 195 1.0 3.0 0.00 0.00 0.00 56 1016.4
20260903171245 94 184 2.0 4.0 0.00 0.00 0.00 56 1016.7
20260903170743 93 277 0.0 1.0 0.00 0.00 0.00 57 1016.6
20260903170240 93 204 0.0 2.0 0.00 0.00 0.00 55 1016.6
20260903165737 93 278 2.0 3.0 0.00 0.00 0.00 56 1016.8
20260903165232 92 152 2.0 3.0 0.00 0.00 0.00 59 1016.7
20260903164727 92 152 1.0 2.0 0.00 0.00 0.00 59 1016.9
20260903164223 92 240 2.0 3.0 0.00 0.00 0.00 60 1016.9
20260903163722 92 182 2.0 3.0 0.00 0.00 0.00 60 1017.1
20260903163219 92 198 1.0 2.0 0.00 0.00 0.00 60 1017.0
20260903162715 92 154 2.0 2.0 0.00 0.00 0.00 59 1017.1
20260903162210 92 191 0.0 1.0 0.00 0.00 0.00 59 1017.0
20260903161706 91 351 0.0 1.0 0.00 0.00 0.00 59 1017.2
20260903161201 91 309 2.0 2.0 0.00 0.00 0.00 59 1017.1
20260903160658 91 258 1.0 2.0 0.00 0.00 0.00 62 1017.2
20260903160156 91 317 2.0 2.0 0.00 0.00 0.00 61 1017.1
20260903155655 90 341 1.0 2.0 0.00 0.00 0.00 63 1017.2
20260903155150 90 287 1.0 2.0 0.00 0.00 0.00 63 1017.3
20260903154646 90 210 1.0 2.0 0.00 0.00 0.00 63 1017.3
20260903154142 90 197 1.0 3.0 0.00 0.00 0.00 63 1017.2
20260903153638 89 177 1.0 3.0 0.00 0.00 0.00 64 1017.1
20260903153133 89 228 2.0 3.0 0.00 0.00 0.00 64 1017.1
20260903152629 89 192 4.0 4.0 0.00 0.00 0.00 65 1017.1
20260903152125 89 340 1.0 2.0 0.00 0.00 0.00 66 1017.2
20260903151624 89 246 1.0 3.0 0.00 0.00 0.00 66 1017.1
20260903151120 88 346 2.0 2.0 0.00 0.00 0.00 68 1017.1
20260903150620 88 340 0.0 4.0 0.00 0.00 0.00 68 1017.3
20260903150115 88 352 2.0 2.0 0.00 0.00 0.00 68 1017.2
20260903145614 87 238 1.0 4.0 0.00 0.00 0.00 68 1017.3
20260903145109 88 336 2.0 3.0 0.00 0.00 0.00 68 1017.1
20260903144608 88 313 0.0 2.0 0.00 0.00 0.00 69 1017.2
20260903144105 87 173 1.0 3.0 0.00 0.00 0.00 69 1017.2
20260903143601 87 261 2.0 2.0 0.00 0.00 0.00 68 1017.1
20260903143056 87 281 0.0 2.0 0.00 0.00 0.00 68 1017.1
20260903142551 87 341 0.0 2.0 0.00 0.00 0.00 68 1017.1
20260903142049 87 231 0.0 1.0 0.00 0.00 0.00 69 1017.0
20260903141549 87 187 0.0 2.0 0.00 0.00 0.00 69 1017.0
20260903141044 86 357 1.0 2.0 0.00 0.00 0.00 69 1017.0
20260903140539 86 191 0.0 3.0 0.00 0.00 0.00 70 1016.8
20260903140035 86 307 1.0 1.0 0.00 0.00 0.00 71 1017.1
20260903135531 86 294 1.0 3.0 0.00 0.00 0.00 70 1017.1
20260903135031 86 167 1.0 1.0 0.00 0.00 0.00 70 1017.0
20260903134530 86 280 0.0 2.0 0.00 0.00 0.00 70 1017.2
20260903134026 85 170 1.0 4.0 0.00 0.00 0.00 71 1017.2
20260903133524 85 218 0.0 2.0 0.00 0.00 0.00 71 1017.2
20260903133019 85 295 0.0 4.0 0.00 0.00 0.00 72 1017.3
20260903132514 84 212 0.0 3.0 0.00 0.00 0.00 73 1017.4
20260903132009 84 156 0.0 2.0 0.00 0.00 0.00 75 1017.4
20260903131504 83 159 0.0 0.0 0.00 0.00 0.00 75 1017.4
20260903131003 83 297 0.0 1.0 0.00 0.00 0.00 75 1017.4
20260903130458 82 201 0.0 0.0 0.00 0.00 0.00 76 1017.3
20260903125956 82 235 0.0 1.0 0.00 0.00 0.00 76 1017.7
20260903125456 81 248 0.0 0.0 0.00 0.00 0.00 79 1017.6
20260903124951 80 181 0.0 1.0 0.00 0.00 0.00 83 1017.6
20260903124446 78 173 0.0 2.0 0.00 0.00 0.00 84 1017.5
20260903123945 78 192 0.0 0.0 0.00 0.00 0.00 86 1017.5
20260903123439 78 191 0.0 0.0 0.00 0.00 0.00 86 1017.6
20260903122938 77 191 0.0 0.0 0.00 0.00 0.00 87 1017.5
20260903122432 77 191 0.0 0.0 0.00 0.00 0.00 88 1017.5
20260903121931 77 191 0.0 0.0 0.00 0.00 0.00 88 1017.5
20260903121426 77 191 0.0 0.0 0.00 0.00 0.00 89 1017.7
20260903120923 77 191 0.0 0.0 0.00 0.00 0.00 90 1017.5
20260903120421 76 191 0.0 0.0 0.00 0.00 0.00 89 1017.5
20260903115921 77 191 0.0 0.0 0.00 0.00 0.00 89 1017.5
20260903115420 77 191 0.0 0.0 0.00 0.00 0.00 89 1017.7
20260903114920 77 191 0.0 0.0 0.00 0.00 0.00 89 1017.5
20260903114416 78 191 0.0 0.0 0.00 0.00 0.00 88 1017.5
20260903113911 78 191 0.0 1.0 0.00 0.00 0.00 85 1017.3
20260903113407 78 192 0.0 0.0 0.00 0.00 0.00 84 1017.3
20260903112902 78 191 0.0 1.0 0.00 0.00 0.00 82 1017.3
20260903112358 78 191 0.0 1.0 0.00 0.00 0.00 82 1017.3
20260903111857 78 177 0.0 1.0 0.00 0.00 0.00 83 1017.2
20260903111357 78 289 0.0 1.0 0.00 0.00 0.00 84 1017.2
20260903110853 78 172 0.0 1.0 0.00 0.00 0.00 83 1017.2
20260903110348 78 171 0.0 1.0 0.00 0.00 0.00 84 1017.0
20260903105843 78 172 0.0 1.0 0.00 0.00 0.00 83 1017.0
20260903105339 78 288 0.0 1.0 0.00 0.00 0.00 87 1017.0
20260903104838 78 187 0.0 1.0 0.00 0.00 0.00 84 1016.9
20260903104333 78 187 0.0 0.0 0.00 0.00 0.00 83 1016.6
20260903103830 78 187 0.0 0.0 0.00 0.00 0.00 83 1016.7
20260903103326 79 260 0.0 0.0 0.00 0.00 0.00 83 1016.8
20260903102822 78 270 0.0 1.0 0.00 0.00 0.00 83 1016.9
20260903102321 78 194 0.0 0.0 0.00 0.00 0.00 84 1016.8
20260903101820 78 193 0.0 0.0 0.00 0.00 0.00 84 1016.7
20260903101316 78 193 0.0 0.0 0.00 0.00 0.00 85 1016.7
20260903100812 78 189 0.0 0.0 0.00 0.00 0.00 87 1016.7
20260903100311 78 189 0.0 0.0 0.00 0.00 0.00 84 1016.7
20260903095809 78 189 0.0 0.0 0.00 0.00 0.00 84 1016.8
20260903095305 78 189 0.0 0.0 0.00 0.00 0.00 84 1016.7
20260903094759 78 189 0.0 0.0 0.00 0.00 0.00 85 1016.8
20260903094253 77 185 0.0 1.0 0.00 0.00 0.00 87 1016.7
20260903093749 77 185 0.0 0.0 0.00 0.00 0.00 88 1016.6
20260903093244 76 185 1.0 1.0 0.00 0.00 0.00 89 1016.6
20260903092743 75 185 0.0 0.0 0.00 0.00 0.00 92 1016.5
20260903092239 75 185 0.0 1.0 0.00 0.00 0.00 93 1016.8
20260903091737 75 185 0.0 0.0 0.00 0.00 0.00 94 1016.7
20260903091232 75 185 0.0 1.0 0.00 0.00 0.00 93 1016.7
20260903090727 75 185 0.0 1.0 0.00 0.00 0.00 93 1016.8
20260903090226 75 185 0.0 1.0 0.00 0.00 0.00 93 1016.9
20260903085725 75 185 0.0 0.0 0.00 0.00 0.00 93 1016.7
20260903085220 75 185 0.0 0.0 0.00 0.00 0.00 93 1016.7
20260903084718 75 185 0.0 0.0 0.00 0.00 0.00 93 1016.5
20260903084213 75 185 0.0 0.0 0.00 0.00 0.00 92 1016.6
20260903083709 76 185 0.0 0.0 0.00 0.00 0.00 92 1016.6
20260903083209 76 185 0.0 0.0 0.00 0.00 0.00 92 1016.6
20260903082703 76 185 0.0 0.0 0.00 0.00 0.00 91 1016.5
20260903082159 76 185 0.0 1.0 0.00 0.00 0.00 92 1016.7
20260903081659 76 185 0.0 0.0 0.00 0.00 0.00 92 1016.7
20260903081155 76 185 0.0 0.0 0.00 0.00 0.00 93 1016.5
20260903080651 76 185 0.0 0.0 0.00 0.00 0.00 93 1016.6
20260903080148 76 185 0.0 0.0 0.00 0.00 0.00 92 1016.7
20260903075647 76 185 0.0 0.0 0.00 0.00 0.00 91 1016.5
20260903075142 76 185 0.0 0.0 0.00 0.00 0.00 91 1016.4
20260903074641 76 185 0.0 0.0 0.00 0.00 0.00 91 1016.6
20260903074137 77 185 0.0 0.0 0.00 0.00 0.00 91 1016.3
20260903073637 77 185 0.0 0.0 0.00 0.00 0.00 91 1016.6
20260903073133 77 185 0.0 0.0 0.00 0.00 0.00 91 1016.6
20260903072629 77 185 0.0 0.0 0.00 0.00 0.00 91 1016.6
20260903072125 77 185 0.0 0.0 0.00 0.00 0.00 91 1016.5
20260903071621 77 185 0.0 0.0 0.00 0.00 0.00 89 1016.4
20260903071117 77 185 0.0 0.0 0.00 0.00 0.00 89 1016.5
20260903070616 77 185 0.0 0.0 0.00 0.00 0.00 89 1016.4
20260903070113 77 185 0.0 1.0 0.00 0.00 0.00 89 1016.5
20260903065611 77 185 1.0 1.0 0.00 0.00 0.00 89 1016.5
20260903065106 77 185 0.0 0.0 0.00 0.00 0.00 89 1016.4
20260903064606 77 185 0.0 0.0 0.00 0.00 0.00 89 1016.5
20260903064101 77 185 0.0 0.0 0.00 0.00 0.00 88 1016.4
20260903063556 77 185 0.0 0.0 0.00 0.00 0.00 89 1016.7
20260903063052 77 185 0.0 0.0 0.00 0.00 0.00 89 1016.4
20260903062547 77 185 0.0 0.0 0.00 0.00 0.00 89 1016.6
20260903062043 77 185 0.0 0.0 0.00 0.00 0.00 90 1016.6
20260903061538 77 185 0.0 0.0 0.00 0.00 0.00 90 1016.6
20260903061037 77 185 0.0 0.0 0.00 0.00 0.00 89 1016.5
20260903060537 78 185 0.0 0.0 0.00 0.00 0.00 89 1016.6
20260903060032 78 185 0.0 0.0 0.00 0.00 0.00 88 1016.3
20260903055530 78 185 0.0 0.0 0.00 0.00 0.00 88 1016.5
20260903055029 78 185 0.0 0.0 0.00 0.00 0.00 89 1016.5
20260903054524 78 185 0.0 0.0 0.00 0.00 0.00 88 1016.5
20260903054020 78 185 0.0 0.0 0.00 0.00 0.00 86 1016.5
20260903053519 79 185 0.0 0.0 0.00 0.00 0.00 88 1016.4
20260903053016 79 185 0.0 0.0 0.00 0.00 0.00 87 1016.3
20260903052512 80 185 0.0 0.0 0.00 0.00 0.00 83 1016.4
20260903052008 80 185 0.0 0.0 0.00 0.00 0.00 83 1016.3
20260903051508 81 185 0.0 0.0 0.00 0.00 0.00 81 1016.3
20260903051004 79 181 0.0 1.0 0.00 0.00 0.00 83 1016.2
20260903050502 79 181 0.0 0.0 0.00 0.00 0.00 84 1016.2
20260903045957 79 181 0.0 0.0 0.00 0.00 0.00 85 1016.4
20260903045453 79 181 0.0 0.0 0.00 0.00 0.00 84 1016.4
20260903044949 79 181 0.0 0.0 0.00 0.00 0.00 86 1016.2
20260903044444 79 181 0.0 0.0 0.00 0.00 0.00 84 1016.2
20260903043940 79 181 0.0 1.0 0.00 0.00 0.00 84 1016.2
20260903043436 79 181 0.0 0.0 0.00 0.00 0.00 86 1016.4
20260903042934 79 181 0.0 0.0 0.00 0.00 0.00 86 1016.2
20260903042430 79 181 0.0 0.0 0.00 0.00 0.00 84 1016.1
20260903041926 79 181 0.0 0.0 0.00 0.00 0.00 84 1016.2
20260903041422 79 181 0.0 0.0 0.00 0.00 0.00 84 1016.3
20260903040917 80 181 0.0 0.0 0.00 0.00 0.00 83 1016.3
20260903040416 80 181 0.0 0.0 0.00 0.00 0.00 83 1016.2
20260903035912 80 181 0.0 1.0 0.00 0.00 0.00 81 1016.3
20260903035408 79 163 1.0 1.0 0.00 0.00 0.00 83 1016.3
20260903034903 80 163 0.0 1.0 0.00 0.00 0.00 84 1016.4
20260903034358 81 159 0.0 1.0 0.00 0.00 0.00 81 1016.5
20260903033853 80 159 0.0 1.0 0.00 0.00 0.00 80 1016.2
20260903033348 81 158 0.0 0.0 0.00 0.00 0.00 81 1016.4
20260903032847 82 158 0.0 2.0 0.00 0.00 0.00 79 1016.2
20260903032344 82 165 1.0 1.0 0.00 0.00 0.00 78 1016.4
20260903031839 82 165 0.0 0.0 0.00 0.00 0.00 78 1016.5
20260903031338 82 165 1.0 1.0 0.00 0.00 0.00 77 1016.4
20260903030834 81 165 1.0 1.0 0.00 0.00 0.00 78 1016.3
20260903030329 82 165 0.0 1.0 0.00 0.00 0.00 80 1016.4
20260903025826 83 165 1.0 1.0 0.00 0.00 0.00 76 1016.7
20260903025321 83 165 1.0 1.0 0.00 0.00 0.00 74 1016.6
20260903024820 83 177 1.0 1.0 0.00 0.00 0.00 76 1016.4
20260903024320 83 183 1.0 1.0 0.00 0.00 0.00 76 1016.7
20260903023815 82 184 0.0 1.0 0.00 0.00 0.00 76 1016.6
20260903023311 83 157 0.0 1.0 0.00 0.00 0.00 74 1016.7
20260903022807 84 157 0.0 1.0 0.00 0.00 0.00 73 1016.7
20260903022306 84 157 1.0 1.0 0.00 0.00 0.00 72 1016.9
20260903021805 84 157 0.0 1.0 0.00 0.00 0.00 73 1016.8
20260903021300 84 156 1.0 1.0 0.00 0.00 0.00 73 1016.7
20260903020800 85 165 1.0 2.0 0.00 0.00 0.00 72 1016.7
20260903020255 84 187 0.0 1.0 0.00 0.00 0.00 73 1016.6
20260903015750 85 187 0.0 1.0 0.00 0.00 0.00 72 1016.7
20260903015245 84 187 1.0 1.0 0.00 0.00 0.00 72 1016.7
20260903014741 84 187 1.0 1.0 0.00 0.00 0.00 73 1016.6
20260903014240 84 187 0.0 1.0 0.00 0.00 0.00 74 1016.7
20260903013735 84 187 1.0 1.0 0.00 0.00 0.00 73 1016.5
20260903013234 84 187 1.0 1.0 0.00 0.00 0.00 73 1016.7
20260903012733 85 187 0.0 1.0 0.00 0.00 0.00 73 1016.5
20260903012234 85 187 1.0 1.0 0.00 0.00 0.00 71 1016.6
20260903011728 85 187 1.0 1.0 0.00 0.00 0.00 72 1016.3
20260903011227 85 187 0.0 1.0 0.00 0.00 0.00 73 1016.5
20260903010723 85 187 0.0 1.0 0.00 0.00 0.00 72 1016.2
20260903010223 85 187 0.0 1.0 0.00 0.00 0.00 72 1016.4
20260903005722 85 187 0.0 1.0 0.00 0.00 0.00 72 1016.3
20260903005217 84 187 0.0 1.0 0.00 0.00 0.00 74 1016.1
20260903004713 84 187 0.0 0.0 0.00 0.00 0.00 75 1016.3
20260903004208 84 187 0.0 1.0 0.00 0.00 0.00 75 1016.1
20260903003704 84 187 0.0 0.0 0.00 0.00 0.00 75 1016.1
20260903003159 84 187 0.0 0.0 0.00 0.00 0.00 75 1016.2
20260903002654 85 187 0.0 0.0 0.00 0.00 0.00 75 1016.1
20260903002154 86 187 0.0 0.0 0.00 0.00 0.00 75 1016.0
20260903001649 87 187 0.0 1.0 0.00 0.00 0.00 68 1016.0
20260903001148 87 187 0.0 0.0 0.00 0.00 0.00 72 1016.1
20260903000644 88 187 1.0 1.0 0.00 0.00 0.00 67 1016.0
20260903000143 88 187 0.0 1.0 0.00 0.00 0.00 66 1016.1
20260902235643 88 187 0.0 1.0 0.00 0.00 0.00 65 1016.1
20260902235138 89 187 0.0 1.0 0.00 0.00 0.00 66 1016.0
20260902234637 89 187 0.0 1.0 0.00 0.00 0.00 64 1016.2
20260902234131 90 187 1.0 1.0 0.00 0.00 0.00 64 1016.2
20260902233626 90 177 0.0 0.0 0.00 0.00 0.00 62 1016.0
20260902233126 90 190 1.0 2.0 0.00 0.00 0.00 61 1016.0
20260902232625 91 170 2.0 3.0 0.00 0.00 0.00 61 1015.8
20260902232125 91 183 1.0 2.0 0.00 0.00 0.00 60 1016.0
20260902231624 91 171 1.0 3.0 0.00 0.00 0.00 60 1016.0
20260902231124 91 192 2.0 3.0 0.00 0.00 0.00 59 1016.2
20260902230620 92 188 2.0 3.0 0.00 0.00 0.00 59 1016.1
20260902230118 92 202 3.0 3.0 0.00 0.00 0.00 58 1016.2
20260902225613 92 192 2.0 4.0 0.00 0.00 0.00 58 1016.2
20260902225113 93 286 2.0 3.0 0.00 0.00 0.00 57 1016.0
20260902224612 93 251 0.0 1.0 0.00 0.00 0.00 58 1016.2
20260902224108 93 323 1.0 2.0 0.00 0.00 0.00 55 1016.3
20260902223604 94 261 1.0 2.0 0.00 0.00 0.00 54 1016.3
20260902223103 94 196 1.0 3.0 0.00 0.00 0.00 54 1016.3
20260902222601 94 267 0.0 3.0 0.00 0.00 0.00 54 1016.2
20260902222100 94 175 1.0 4.0 0.00 0.00 0.00 54 1016.3
20260902221556 95 205 0.0 4.0 0.00 0.00 0.00 54 1016.4
20260902221056 94 187 1.0 3.0 0.00 0.00 0.00 54 1016.3
20260902220551 95 211 0.0 3.0 0.00 0.00 0.00 53 1016.5
20260902220046 95 219 2.0 4.0 0.00 0.00 0.00 53 1016.4
20260902215542 95 196 0.0 3.0 0.00 0.00 0.00 54 1016.5
20260902215038 95 274 3.0 4.0 0.00 0.00 0.00 52 1016.4
20260902214538 95 221 0.0 1.0 0.00 0.00 0.00 53 1016.4
20260902214037 95 264 3.0 4.0 0.00 0.00 0.00 51 1016.5
20260902213533 95 276 1.0 4.0 0.00 0.00 0.00 52 1016.5
20260902213032 96 177 2.0 3.0 0.00 0.00 0.00 52 1016.3
20260902212528 96 235 2.0 3.0 0.00 0.00 0.00 51 1016.4
20260902212023 96 188 3.0 4.0 0.00 0.00 0.00 52 1016.3
20260902211520 95 197 1.0 3.0 0.00 0.00 0.00 52 1016.4
20260902211014 96 216 0.0 4.0 0.00 0.00 0.00 53 1016.5
20260902210514 96 169 2.0 3.0 0.00 0.00 0.00 52 1016.4
20260902210014 96 201 0.0 4.0 0.00 0.00 0.00 52 1016.3